Tracking 17631 objects as of 4-May-2016
HD Live streaming from Space Station
objects crossing your sky now

THORAD AGENA D DEB

Track THORAD AGENA D DEB now!
10-day predictions


NORAD ID: 4171
Int'l Code: 1969-082AP
Perigee: 767.2 km
Apogee: 825.2 km
Inclination: 70.1 °
Period: 100.6 minutes
Semi major axis: 7167 km
RCS: 0.0461 m2 (small)
Launch date: September 30, 1969
Source: United States (US)
Launch site: AIR FORCE WESTERN TEST RANGE (AFWTR)

Note: This is SATELLITE DEBRIS
Your satellite tracking list
Your tracking list is empty





NASA's NSSDC Master Catalog

Two Line Element Set (TLE):
1 04171U 69082AP  16124.03460841  .00000274  00000-0  12547-3 0  9993
2 04171  70.0788 259.6554 0040490 244.6090 115.0841 14.30792235410138
Source of the keplerian elements: AFSPC

N2YO: 326